Terminal Aerodrome Forecast
Issued by NWS

Home | Current Version | Previous Version | Text Only | Print | Product List | Glossary On
Versions: 1 2 3 4 5 6 7 8 9 10 11 12 13 14 15 16 17 18 19 20 21 22 23 24 25 26 27 28 29 30 31 32
000
FTUS45 KLKN 220534
TAFELY
TAF
KELY 220534Z 2206/2306 VRB06KT P6SM VCSH OVC028
     FM221700 32015G25KT P6SM VCSH SCT030 OVC050
     FM222000 33020G30KT P6SM VCSH SCT030 BKN050
     FM230000 34011KT P6SM SCT050 BKN070=

USA.gov is the U.S. government's official web portal to all federal, state and local government web resources and services.